Location: Asheville, NC
(35.6000°N, 82.5500°W)
Time: 03:16:27
(UTC-04:00)

FO-29 - Pass Details

Date: 14 March 2018
Orbit: 799 x 1322 km, 98.5° (Epoch: 19 June)

Event Time Altitude Azimuth Distance (km) Brightness Sun altitude
Rises 22:53:00 0° 356° (N) 4,048 13.1 -39.1°
Reaches altitude 10° 22:56:16 10° 341° (NNW) 3,160 12.6 -39.6°
Maximum altitude 23:01:18 20° 297° (WNW) 2,546 12.1 -40.5°
Drops below altitude 10° 23:06:33 10° 254° (WSW) 3,315 12.6 -41.4°
Sets 23:10:07 0° 239° (WSW) 4,308 13.1 -42.0°
